Location: ????????
(56.0167°N, 38.0333°E)
Time: 04:00:35
(UTC+00:00)

ATLAS 3B R/B - Pass Details

Date: 19 May 2025
Orbit: 935 x 1258 km, 63.8° (Epoch: 15 June)

Event Time Altitude Azimuth Distance (km) Brightness Sun altitude
Exits shadow 21:30:07 10° 218° (SW) 3,074 4.6 -14.0°
Maximum altitude 21:37:33 76° 135° (SE) 1,271 3.0 -14.0°
Drops below altitude 10° 21:45:25 10° 52° (NE) 3,248 5.9 -13.9°
Sets 21:48:15 0° 51° (NE) 4,221 6.5 -13.8°
